Cape Byron Observation History
Time Wind Speed Temp Pressure Rel. Hum Rain
15/09:00pm N 16-23 kts 22.0°c 1011.3 hPa 91% 0.0mm
15/08:30pm N 18-25 kts 22.2°c 1011.0 hPa 91% 0.0mm
15/08:00pm N 17-25 kts 22.3°c 1010.7 hPa 93% 0.0mm
15/07:30pm N 16-23 kts 22.4°c 1010.4 hPa 91% 0.0mm
15/07:00pm N 12-16 kts 22.9°c 1010.4 hPa 89% 0.0mm
15/06:30pm N 12-16 kts 23.4°c 1010.0 hPa 88% 0.0mm
15/06:00pm N 13-17 kts 23.7°c 1009.5 hPa 85% 0.0mm
15/05:30pm N 14-21 kts 23.9°c 1009.3 hPa 84% 0.0mm
15/05:00pm NNE 13-18 kts 24.3°c 1009.2 hPa 82% 0.0mm
15/04:30pm NNE 11-16 kts 24.5°c 1009.5 hPa 81% 0.0mm
15/04:00pm NNE 13-18 kts 24.4°c 1009.4 hPa 81% 0.0mm
15/03:30pm NE 17-25 kts 24.6°c 1009.5 hPa 79% 0.0mm
15/03:00pm NE 21-27 kts 25.4°c 1009.8 hPa 77% 0.0mm
15/02:30pm NE 17-23 kts 25.5°c 1010.4 hPa 74% 0.0mm
15/02:00pm NE 19-25 kts 25.8°c 1010.8 hPa 72% 0.0mm
15/01:30pm NE 15-23 kts 25.4°c 1011.3 hPa 73% 0.0mm
15/01:00pm NE 15-21 kts 25.5°c 1011.8 hPa 70% 0.0mm
15/12:30pm NNE 11-17 kts 25.1°c 1012.5 hPa 72% 0.0mm
15/12:00pm NNE 11-16 kts 25.0°c 1013.0 hPa 73% 0.0mm
15/11:30am NNE 10-14 kts 24.8°c 1013.6 hPa 74% 0.0mm
15/11:00am NNE 9-13 kts 24.3°c 1014.1 hPa 75% 0.0mm
15/10:30am NNE 8-11 kts 24.0°c 1014.4 hPa 74% 0.0mm
15/10:00am NNE 6-7 kts 23.8°c 1014.5 hPa 73% 0.0mm
15/09:30am NNE 6-9 kts 23.3°c 1014.6 hPa 72% 0.0mm
15/09:00am N 5-7 kts 22.6°c 1014.7 hPa 75% 0.0mm
15/08:30am N 5-7 kts 21.8°c 1014.8 hPa 78% 0.0mm
15/08:00am NNE 4-5 kts 21.0°c 1014.7 hPa 81% 0.0mm
15/07:30am NNW 3-5 kts 20.3°c 1014.5 hPa 86% 0.0mm
15/07:00am NNW 3-4 kts 19.4°c 1014.4 hPa 90% 0.0mm
15/06:30am NNW 4-5 kts 18.8°c 1014.1 hPa 91% 0.0mm
15/06:00am NNW 3-5 kts 18.5°c 1013.9 hPa 93% 0.0mm
15/05:30am NW 4-6 kts 18.0°c 1013.5 hPa 93% 0.0mm
15/05:00am NW 4-5 kts 18.1°c 1013.3 hPa 94% 0.0mm
15/04:30am NW 4-5 kts 18.3°c 1013.2 hPa 93% 0.0mm
15/04:00am NNW 4-7 kts 18.6°c 1013.3 hPa 92% 0.0mm
15/03:30am NNW 4-7 kts 19.3°c 1013.4 hPa 92% 0.0mm
15/03:00am NNW 6-8 kts 19.3°c 1013.4 hPa 92% 0.0mm
15/02:30am NNW 6-9 kts 19.3°c 1013.7 hPa 90% 0.0mm
15/02:00am NNW 6-9 kts 19.4°c 1014.0 hPa 90% 0.0mm
15/01:30am NNW 6-8 kts 19.6°c 1014.3 hPa 89% 0.0mm
15/01:00am NNW 6-9 kts 19.8°c 1014.5 hPa 87% 0.0mm
15/12:30am NNW 6-8 kts 19.9°c 1014.7 hPa 86% 0.0mm
15/12:00am N 8-14 kts 20.9°c 1015.1 hPa 82% 0.0mm
Time Wind Speed Temp Pressure Rel. Hum Rain
14/11:30pm NNE 11-16 kts 20.8°c 1015.1 hPa 79% 0.0mm
14/11:00pm NNE 11-15 kts 20.9°c 1015.1 hPa 79% 0.0mm
14/10:30pm NNE 10-14 kts 20.9°c 1015.1 hPa 78% 0.0mm
14/10:00pm NNE 9-14 kts 20.9°c 1015.1 hPa 77% 0.0mm
14/09:30pm NNE 10-13 kts 21.1°c 1014.8 hPa 78% 0.0mm
14/09:00pm NNE 12-18 kts 21.1°c 1014.7 hPa 78% 0.0mm
14/08:30pm NNE 11-15 kts 21.3°c 1014.3 hPa 76% 0.0mm
14/08:00pm NE 11-16 kts 21.3°c 1014.1 hPa 74% 0.0mm
14/07:30pm NE 17-21 kts 21.4°c 1013.5 hPa 71% 0.0mm
14/07:00pm NE 18-20 kts 21.8°c 1013.3 hPa 68% 0.0mm
14/06:30pm NE 18-21 kts 22.9°c 1013.0 hPa 63% 0.0mm
14/06:00pm ENE 17-20 kts 23.9°c 1012.7 hPa 57% 0.0mm
14/05:30pm ENE 15-20 kts 25.1°c 1012.5 hPa 49% 0.0mm
14/05:00pm ENE 11-14 kts 25.9°c 1012.6 hPa 53% 0.0mm
14/04:30pm ENE 12-17 kts 27.0°c 1012.6 hPa 51% 0.0mm
14/04:00pm ENE 11-17 kts 27.6°c 1012.8 hPa 47% 0.0mm
14/03:30pm ENE 12-16 kts 27.9°c 1012.9 hPa 46% 0.0mm
14/03:00pm NE 17-19 kts 26.7°c 1013.1 hPa 51% 0.0mm
14/02:30pm NE 16-17 kts 25.1°c 1013.5 hPa 53% 0.0mm
14/02:00pm NE 16-18 kts 26.9°c 1013.8 hPa 49% 0.0mm
14/01:30pm ENE 16-19 kts 26.8°c 1014.0 hPa 50% 0.0mm
14/01:00pm ENE 14-16 kts 27.9°c 1014.5 hPa 49% 0.0mm
14/12:30pm ENE 13-16 kts 28.4°c 1015.0 hPa 47% 0.0mm
14/12:00pm ENE 13-15 kts 27.4°c 1015.5 hPa 47% 0.0mm
14/11:30am NE 11-12 kts 27.5°c 1016.0 hPa 48% 0.0mm
14/11:00am NE 10-11 kts 26.7°c 1016.1 hPa 52% 0.0mm
14/10:30am NE 8-11 kts 23.5°c 1016.2 hPa 58% 0.0mm
14/10:00am NNE 7-9 kts 23.5°c 1016.5 hPa 58% 0.0mm
14/09:30am N 5-6 kts 22.5°c 1016.6 hPa 61% 0.0mm
14/09:00am N 5-6 kts 21.2°c 1016.5 hPa 66% 0.0mm
14/08:30am N 4-5 kts 20.8°c 1016.5 hPa 69% 0.0mm
14/08:00am NNW 4-5 kts 20.0°c 1016.4 hPa 71% 0.0mm
14/07:30am NW 4-6 kts 19.4°c 1016.2 hPa 75% 0.0mm
14/07:00am NNW 5-7 kts 18.7°c 1015.8 hPa 74% 0.0mm
14/06:30am NNE 5-7 kts 19.4°c 1015.7 hPa 74% 0.0mm
14/06:00am NE 8-9 kts 19.5°c 1015.2 hPa 72% 0.0mm
14/05:30am NE 9-11 kts 19.5°c 1015.0 hPa 73% 0.0mm
14/05:00am NE 10-13 kts 19.5°c 1014.7 hPa 72% 0.0mm
14/04:30am ENE 8-11 kts 18.9°c 1014.4 hPa 70% 0.0mm
14/04:00am E 5-7 kts 18.8°c 1014.5 hPa 68% 0.0mm
14/03:30am E 4-7 kts 19.1°c 1014.6 hPa 69% 0.0mm
14/03:00am E 4-7 kts 19.1°c 1014.5 hPa 68% 0.0mm
14/02:30am ENE 4-7 kts 19.3°c 1014.6 hPa 67% 0.0mm
14/02:00am ENE 5-7 kts 19.6°c 1014.8 hPa 67% 0.0mm
14/01:30am E 7-9 kts 20.0°c 1015.0 hPa 66% 0.0mm
14/01:00am E 6-8 kts 20.2°c 1015.2 hPa 65% 0.0mm
14/12:30am E 6-9 kts 20.2°c 1015.3 hPa 64% 0.0mm
14/12:00am E 6-9 kts 20.1°c 1015.3 hPa 63% 0.0mm
Time Wind Speed Temp Pressure Rel. Hum Rain
13/11:30pm E 5-7 kts 20.2°c 1015.5 hPa 64% 0.0mm
13/11:00pm ENE 6-8 kts 20.1°c 1015.4 hPa 65% 0.0mm
13/10:30pm E 7-10 kts 20.2°c 1015.3 hPa 65% 0.0mm
13/10:00pm E 8-11 kts 20.3°c 1015.3 hPa 66% 0.0mm
13/09:30pm E 11-14 kts 20.4°c 1015.1 hPa 64% 0.0mm
13/09:00pm E 12-14 kts 20.4°c 1014.8 hPa 65% 0.0mm
13/08:30pm E 12-16 kts 20.4°c 1014.3 hPa 65% 0.0mm
13/08:00pm E 13-16 kts 20.5°c 1014.0 hPa 68% 0.0mm
13/07:30pm E 13-16 kts 20.6°c 1013.7 hPa 66% 0.0mm
13/07:00pm ESE 13-17 kts 20.7°c 1013.2 hPa 66% 0.0mm
13/06:30pm ESE 14-17 kts 20.8°c 1012.7 hPa 66% 0.0mm
13/06:00pm ESE 14-17 kts 21.1°c 1012.4 hPa 65% 0.0mm
13/05:30pm ESE 15-18 kts 21.5°c 1012.1 hPa 63% 0.0mm
13/05:00pm E 13-16 kts 22.2°c 1011.9 hPa 63% 0.0mm
13/04:30pm ESE 14-17 kts 22.1°c 1011.7 hPa 61% 0.0mm
13/04:00pm SE 16-19 kts 21.9°c 1011.8 hPa 62% 0.0mm
13/03:30pm SE 14-19 kts 22.3°c 1011.7 hPa 61% 0.0mm
13/03:00pm SE 16-21 kts 22.3°c 1011.8 hPa 63% 0.0mm
13/02:30pm SE 13-18 kts 21.9°c 1012.1 hPa 67% 0.0mm
13/02:00pm SSE 16-20 kts 21.7°c 1012.3 hPa 68% 0.0mm
13/01:30pm SSE 17-22 kts 22.1°c 1012.5 hPa 64% 0.0mm
13/01:00pm S 17-20 kts 22.1°c 1012.7 hPa 71% 0.0mm
13/12:30pm S 17-19 kts 22.1°c 1012.8 hPa 71% 0.0mm
13/12:00pm S 17-19 kts 22.1°c 1012.8 hPa 72% 0.0mm
13/11:30am SSW 17-21 kts 21.9°c 1012.9 hPa 72% 0.0mm
13/11:00am SSW 19-22 kts 21.8°c 1013.0 hPa 74% 0.0mm
13/10:30am SSW 21-25 kts 22.1°c 1012.8 hPa 72% 0.0mm
13/10:00am SSW 19-23 kts 22.2°c 1012.5 hPa 75% 0.0mm
13/09:30am SSW 21-23 kts 21.5°c 1012.1 hPa 78% 0.0mm
13/09:00am SSW 21-24 kts 21.6°c 1011.8 hPa 79% 0.0mm
13/08:30am SSW 23-26 kts 21.4°c 1011.4 hPa 79% 0.0mm
13/08:00am SSW 23-29 kts 21.3°c 1010.8 hPa 80% 0.0mm
13/07:30am SSW 25-33 kts 21.2°c 1010.0 hPa 81% 0.0mm
13/07:00am SSW 22-32 kts 21.2°c 1009.3 hPa 80% 0.0mm
13/06:30am S 18-22 kts 21.6°c 1009.0 hPa 72% 0.0mm
13/06:00am N 13-15 kts 21.9°c 1007.3 hPa 68% 0.0mm
13/05:30am N 14-19 kts 21.6°c 1006.3 hPa 72% 0.0mm
13/05:00am N 16-20 kts 21.8°c 1006.0 hPa 72% 0.0mm
13/04:30am N 18-23 kts 21.7°c 1005.7 hPa 74% 0.0mm
13/04:00am N 14-19 kts 20.9°c 1005.7 hPa 81% 0.0mm
13/03:30am N 16-20 kts 20.9°c 1005.5 hPa 82% 0.0mm
13/03:00am N 14-19 kts 20.8°c 1005.7 hPa 83% 0.0mm
13/02:30am N 15-21 kts 21.0°c 1006.0 hPa 84% 0.0mm
13/02:00am N 15-20 kts 21.1°c 1006.3 hPa 83% 0.0mm
13/01:30am NNW 14-21 kts 21.2°c 1006.7 hPa 83% 0.0mm
13/01:00am NNW 13-21 kts 21.2°c 1006.9 hPa 85% 0.0mm
13/12:30am NNW 13-19 kts 21.1°c 1007.5 hPa 87% 0.0mm
13/12:00am NNW 14-22 kts 21.2°c 1007.8 hPa 87% 0.0mm